GW2873 Weather Reports


time (UTC)temp
F
wind
direction
speed
knots
gust
knots
rain 1hr
in
rain 24hr
in
rain mn
in
humidity
%
barometer
mb
20260504081608 42 115 0.0 1.7 0.00 0.00 0.00 64 1011.2
20260504080103 42 190 0.0 5.2 0.00 0.00 0.00 62 1011.2
20260504044558 41 75 0.0 3.5 0.00 0.00 0.00 64 1011.0
20260504043059 41 0 0.0 3.5 0.00 0.00 0.00 65 1011.0
20260504041609 41 36 0.0 2.6 0.00 0.00 0.00 65 1011.1
20260504040059 42 0 0.0 0.9 0.00 0.00 0.00 64 1011.2
20260504034623 42 0 0.0 1.7 0.00 0.00 0.00 61 1011.2
20260504033055 43 0 0.0 0.9 0.00 0.00 0.00 60 1011.2
20260504031555 43 0 0.0 1.7 0.00 0.00 0.00 60 1011.2
20260504030058 44 0 0.0 1.7 0.00 0.00 0.00 58 1011.1
20260504024556 45 0 0.0 2.6 0.00 0.00 0.00 58 1011.3
20260504023058 45 0 0.9 2.6 0.00 0.00 0.00 57 1011.4
20260504021554 45 241 0.0 2.6 0.00 0.00 0.00 60 1011.4
20260504020117 45 0 0.0 1.7 0.00 0.00 0.00 59 1011.1
20260504014602 45 0 0.9 3.5 0.00 0.00 0.00 57 1011.0
20260504013123 45 181 0.0 3.5 0.00 0.00 0.00 60 1010.8
20260504011554 45 0 0.0 2.6 0.00 0.00 0.00 59 1010.8
20260504010055 45 0 0.0 3.5 0.00 0.00 0.00 57 1010.7
20260504004555 45 0 0.0 3.5 0.00 0.00 0.00 57 1010.7
20260504003054 45 0 0.0 0.9 0.00 0.00 0.00 56 1010.5
20260504001556 46 186 0.0 2.6 0.00 0.00 0.00 54 1010.3
20260504000107 47 0 0.0 3.5 0.00 0.00 0.00 54 1010.2
20260503234555 47 191 0.0 3.5 0.00 0.00 0.00 52 1010.2
20260503233058 48 258 0.0 2.6 0.00 0.00 0.00 51 1010.2
20260503231555 48 283 1.7 7.0 0.00 0.00 0.00 50 1010.1
20260503230104 49 203 1.7 5.2 0.00 0.00 0.00 49 1010.2
20260503224601 50 194 0.9 7.8 0.00 0.00 0.00 47 1010.1
20260503223056 51 0 2.6 7.8 0.00 0.00 0.00 46 1010.2
20260503221603 51 284 1.7 6.1 0.00 0.00 0.00 45 1010.0
20260503220055 52 345 2.6 8.7 0.00 0.00 0.00 44 1010.2
20260503214600 52 340 2.6 7.8 0.00 0.00 0.00 44 1010.1
20260503213102 52 227 1.7 8.7 0.00 0.00 0.00 43 1010.0
20260503211559 54 314 1.7 8.7 0.00 0.00 0.00 40 1009.8
20260503210056 53 248 2.6 11.3 0.00 0.00 0.00 38 1009.7
20260503204619 53 150 1.7 7.0 0.00 0.00 0.00 38 1009.6
20260503203059 55 250 1.7 9.6 0.00 0.00 0.00 34 1009.5
20260503201555 56 258 3.5 7.8 0.00 0.00 0.00 33 1009.6
20260503200101 54 179 3.5 13.0 0.00 0.00 0.00 35 1009.7
20260503194602 55 185 4.3 15.6 0.00 0.00 0.00 33 1009.8
20260503193108 56 303 3.5 12.2 0.00 0.00 0.00 31 1010.0
20260503191614 55 341 4.3 11.3 0.00 0.00 0.00 31 1010.3
20260503190057 56 145 2.6 13.0 0.00 0.00 0.00 31 1010.3
20260503184600 56 318 2.6 12.2 0.00 0.00 0.00 31 1010.6
20260503183054 56 302 3.5 9.6 0.00 0.00 0.00 31 1010.7
20260503181555 56 298 1.7 13.0 0.00 0.00 0.00 34 1010.7
20260503174556 53 324 3.5 13.9 0.00 0.00 0.00 34 1011.0
20260503173100 54 136 2.6 10.4 0.00 0.00 0.00 34 1011.1
20260503171558 54 278 3.5 9.6 0.00 0.00 0.00 33 1011.2
20260503170111 53 355 2.6 9.6 0.00 0.00 0.00 33 1011.1
20260503160109 46 223 1.7 9.6 0.00 0.00 0.00 42 1011.7